User: anonymous   Login
Location: Caltech
(34.1382°N, 118.1253°W)
Time: 19:55:10
(UTC-08:00)
Language:

Cosmos 1939 Rocket - Orbit

View from above orbital plane
View from above orbital plane
View from above satellite
View from above satellite

Ground track
Ground track

The orbit data is extracted from the following two-line orbital elements,

1 19046U 88032B   16037.75612546  .00001570  00000-0  12371-3 0  9994
2 19046  97.6016  90.8945 0036391 227.7932 132.0203 15.01727974498128
Epoch (UTC): 06 February 2016 18:08:49
Eccentricity: 0.0036391
inclination: 97.6016°
perigee height: 536 km
apogee height: 587 km
right ascension of ascending node: 90.8945°
argument of perigee: 227.7932°
revolutions per day: 15.01727974
mean anomaly at epoch: 132.0203°
orbit number at epoch: 49812

The dashed part of the orbit path shows where the satellite is in the earth's shadow,  

DLR